Flag for U.S.A. Weather past 2 weeks in Cedar Rapids, Iowa, U.S.A.

Now
41 °F

Clear.


Feels Like: 33 °F
Forecast: 36 / 44 °F
Wind: 15 mph from South

Location: Cedar Rapids Municipal Airport

Current Time: Dec 26, 2014 at 2:43:26 AM

Latest Report: Dec 26, 2014 at 1:52 AM


Visibility: 10 mi

Pressure: 29.85 "Hg

Humidity: 70%

Dew point: 32 °F

Location of Cedar RapidsLocation

Historic Weather in Cedar Rapids — Graph

°F

Cedar Rapids temperature yesterday

Maximum temperature yesterday: 47 °F (at 1:52 PM)
Minimum temperature yesterday: 31 °F (at 12:52 AM)
Average temperature yesterday: 38 °F

Past Weeks' High & Low Weather Summary

 TemperatureHumidityPressure
High54 °F (Dec 14, 1:59 PM)100% (Dec 11, 9:52 PM)30.37 "Hg (Dec 11, 9:52 PM)
Low12 °F (Dec 18, 12:52 AM)50% (Dec 12, 2:52 PM)29.44 "Hg (Dec 23, 2:04 AM)
Average34 °F90%30.02 "Hg
* Reported Dec 11 12:52 AM — Dec 26 12:52 AM, Cedar Rapids, Weather by CustomWeather, © 2014

Note: Actual official high and low records may vary slightly from our data, if they occured in-between our weather recording intervals... More about our weather records

Advertising

Cedar Rapids weather history for previous 24 hours

 ConditionsComfort  
Time TempWeatherWind HumidityBarometerVisibility
12:52 AM
Dec 26
40 °FClear.13 mph73%29.85 "Hg10 mi
11:52 PM
Dec 25
39 °FClear.14 mph76%29.85 "Hg10 mi
10:52 PM39 °FClear.13 mph76%29.86 "Hg10 mi
9:52 PM39 °FClear.14 mph76%29.86 "Hg10 mi
8:52 PM40 °FClear.12 mph73%29.86 "Hg10 mi
7:52 PM41 °FClear.10 mph74%29.86 "Hg10 mi
6:52 PM42 °FClear.16 mph71%29.84 "Hg10 mi
5:52 PM42 °FClear.14 mph68%29.83 "Hg10 mi
4:52 PM42 °FClear.12 mph68%29.82 "Hg10 mi
3:52 PM46 °FSunny.12 mph58%29.82 "Hg10 mi
2:52 PM47 °FSunny.13 mph59%29.82 "Hg10 mi
1:52 PM47 °FSunny.12 mph59%29.82 "Hg10 mi
12:52 PM43 °FSunny.17 mph65%29.83 "Hg10 mi
11:52 AM41 °FSunny.16 mph70%29.85 "Hg10 mi
10:52 AM38 °FSunny.12 mph76%29.86 "Hg10 mi
9:52 AM35 °FSunny.14 mph82%29.86 "Hg10 mi
8:52 AM32 °FSunny.16 mph92%29.83 "Hg9 mi
7:52 AM31 °FSunny.10 mph92%29.82 "Hg10 mi
6:52 AM31 °FPassing clouds.9 mph92%29.81 "Hg9 mi
5:52 AM31 °FOvercast.12 mph92%29.80 "Hg10 mi
4:52 AM31 °FOvercast.10 mph92%29.80 "Hg10 mi
3:52 AM31 °FOvercast.9 mph89%29.80 "Hg8 mi
2:52 AM31 °FOvercast.15 mph89%29.79 "Hg10 mi
Weather by CustomWeather, © 2014

See weather overviewHow to use our weather pages